Temperature
23 21 20 22 27 32 33 31 31 31 31 30 29 28 29 28 29 26 22 21 21 20 19 21 20 20 20 20 20 20 20 19 19 19 19 19 19 19 19 19 19 19 19 19 19 19 19 19 19
22 21 21 26 32 33 33 30 31 30 29 28 28 27 28 28 25 22 21 20 20 20 19 20 21 20 20 19 20 20 20 19 19 19 19 19 19 19 20 19 19 19 19 19 19 19 19 19 19
23 21 26 32 32 32 31 30 30 29 27 28 28 28 28 27 23 22 21 20 20 20 19 19 21 21 20 20 19 20 20 19 19 19 19 19 20 20 20 19 19 19 19 19 19 19 19 19 19
22 24 28 32 33 32 31 31 30 30 29 28 28 28 26 23 22 21 20 20 20 19 18 20 21 21 20 20 20 20 20 20 20 20 20 20 20 20 20 19 19 19 19 19 19 19 19 19 19
24 28 32 32 33 32 32 30 30 31 29 29 28 29 27 21 21 20 20 20 20 19 19 20 21 21 21 20 20 20 20 20 20 20 20 20 19 19 19 19 19 19 19 19 19 19 19 19 19
28 30 32 33 32 32 32 30 30 30 29 28 28 29 26 21 20 20 20 20 20 20 19 18 21 20 20 20 20 20 20 20 20 20 20 19 19 19 19 19 19 19 19 19 18 19 18 18 18
29 31 32 31 31 31 31 30 30 30 30 29 28 29 27 22 21 20 20 20 20 19 19 18 19 20 20 20 20 20 20 20 20 20 19 19 19 19 19 19 19 19 19 19 18 18 18 18 18
27 31 31 33 31 32 31 31 30 30 30 28 28 29 28 23 21 20 20 19 19 19 19 18 18 19 20 20 20 20 20 20 20 19 19 19 19 19 19 19 19 18 18 18 18 18 18 18 18
27 31 31 33 32 33 31 31 31 29 29 27 27 28 26 23 21 20 20 19 19 19 19 18 18 18 17 18 19 20 19 19 19 19 19 19 18 18 18 18 18 18 18 18 18 18 18 18 18
28 30 32 31 31 32 31 31 31 30 30 29 29 26 23 22 21 21 20 20 19 19 19 19 18 18 17 17 17 17 18 17 17 17 17 17 17 18 18 18 18 19 18 18 18 18 18 18 18
28 31 30 29 30 30 31 31 31 32 32 32 31 29 24 22 21 21 20 20 19 19 19 18 18 18 17 18 18 18 18 18 17 17 17 17 18 18 18 18 18 18 18 18 18 18 18 18 18
27 29 28 29 29 30 30 31 31 32 32 31 29 28 25 23 22 21 21 20 19 18 19 19 18 17 17 18 17 18 18 17 17 18 17 17 17 18 17 18 18 18 18 18 18 18 18 18 18
28 29 28 29 29 30 30 31 31 31 30 29 27 26 24 23 22 21 21 20 19 19 19 19 18 17 17 17 17 17 17 18 18 18 18 18 18 18 17 17 18 18 18 18 18 18 18 18 18
28 28 29 29 29 30 30 31 30 30 28 28 27 26 25 23 23 21 20 20 19 19 19 19 18 18 18 17 17 17 17 18 18 18 18 17 17 17 17 17 18 18 18 18 18 18 18 17 17
27 29 30 30 30 29 30 31 30 28 28 27 26 24 23 22 21 21 20 19 19 19 18 18 18 18 18 18 18 18 18 18 18 18 18 17 17 18 18 18 18 18 18 18 18 18 18 18 18
27 29 31 30 30 29 30 31 28 27 27 26 24 22 21 19 18 18 18 18 18 18 18 18 18 18 18 18 18 18 18 18 18 18 18 18 17 17 18 17 18 18 18 18 18 18 18 18 18
28 31 30 30 29 29 29 30 27 26 26 24 22 21 20 18 17 17 18 18 18 18 18 18 18 18 18 18 18 18 18 17 18 18 18 18 17 17 17 17 17 18 18 18 18 18 18 18 18
29 30 29 29 28 29 29 28 26 25 25 24 22 21 19 18 18 17 17 18 18 19 20 20 20 20 20 19 18 18 18 18 18 18 19 19 18 18 18 18 17 17 17 18 18 17 17 17 17
28 27 28 28 28 28 28 27 25 23 23 22 21 21 20 19 18 18 18 18 18 19 20 21 22 23 22 22 20 18 18 18 18 18 19 18 19 19 19 19 18 17 16 17 17 17 17 17 17
28 28 28 28 28 28 28 27 25 23 21 21 21 19 20 20 19 18 18 18 18 18 18 20 20 20 20 21 20 19 19 19 18 18 18 20 20 19 19 19 18 17 16 16 17 17 16 16 16
27 27 26 26 27 28 27 27 26 23 21 21 20 20 19 19 19 19 19 18 18 17 18 19 20 20 18 17 17 16 17 17 16 17 19 20 19 19 18 15 16 16 16 16 16 16 16 16 16
28 26 26 26 26 27 27 25 27 25 24 22 22 21 21 20 20 20 20 20 19 19 18 18 19 18 17 16 16 15 15 15 16 17 18 20 19 18 16 15 14 15 15 15 15 16 15 15 15
27 26 26 25 25 26 27 26 28 26 25 24 23 21 21 20 20 19 19 18 19 19 19 18 18 19 18 17 15 14 14 16 16 17 18 18 18 16 15 16 15 15 15 15 15 16 15 15 15
26 25 26 26 26 25 26 26 27 28 25 24 23 22 21 21 20 19 18 18 17 17 17 17 17 17 16 15 15 14 14 15 15 15 17 17 16 15 14 14 14 14 15 15 16 16 15 15 14
25 25 25 26 26 26 25 25 27 25 25 24 23 23 22 21 20 19 18 18 17 16 16 16 16 16 15 15 14 15 15 14 14 14 15 14 13 13 14 14 14 14 14 15 16 15 14 14 14
25 24 23 23 23 25 24 25 24 24 23 23 22 22 21 21 20 19 18 17 16 16 16 16 15 15 14 15 14 14 14 14 14 13 13 13 14 13 13 13 13 14 14 15 15 14 14 14 14
23 28 24 24 23 22 25 25 25 24 23 23 22 22 22 21 20 19 18 17 16 16 15 14 14 14 14 14 14 14 14 14 13 13 13 13 13 13 13 13 13 13 13 14 14 14 14 14 13
23 26 24 24 22 22 24 24 25 23 23 24 23 22 22 21 20 19 18 17 16 15 14 15 14 13 14 13 14 14 14 14 13 13 12 12 12 12 12 12 12 13 13 13 13 13 13 13 13
24 24 23 22 23 21 21 25 24 24 23 23 23 22 21 20 19 18 17 16 15 14 13 13 13 13 14 13 13 13 12 12 12 12 12 12 12 12 12 11 12 12 12 12 12 12 12 12 12
24 23 23 22 22 22 21 22 25 24 24 23 23 22 20 19 18 17 16 15 15 14 13 13 13 12 13 13 12 12 12 12 11 11 12 12 12 12 11 11 11 11 11 11 11 12 12 12 12
Wind_Speed
7 7 5 4 6 5 2 2 2 1 3 3 5 3 2 3 3 2 7 13 16 19 21 20 18 17 16 16 15 17 18 18 17 16 15 13 12 11 10 9 7 7 7 7 7 8 8 8 7
4 5 5 5 5 3 3 1 2 0 2 4 5 4 2 1 2 5 10 13 18 19 21 20 19 17 17 17 16 17 18 17 16 15 14 12 12 11 10 9 8 7 6 6 6 6 7 6 5
6 7 4 4 4 6 5 1 2 4 4 3 3 2 3 3 2 6 10 17 18 17 18 19 19 18 17 17 16 16 16 15 14 14 13 12 12 10 9 8 7 6 5 4 4 5 5 5 3
5 5 5 5 5 7 5 2 7 7 5 2 2 0 2 4 2 6 14 19 18 17 17 20 18 17 16 16 16 15 15 14 13 12 11 10 10 10 10 9 8 6 4 4 4 4 3 3 2
5 4 6 4 3 5 3 2 7 4 1 1 1 2 2 4 7 11 17 19 18 17 16 20 18 17 16 16 15 15 15 15 14 13 12 11 9 8 8 7 7 6 6 5 5 4 3 3 3
4 4 7 3 3 4 1 2 6 7 4 1 2 2 4 8 11 14 17 17 17 16 15 19 18 17 16 16 16 16 16 15 14 12 12 11 10 9 8 7 7 6 7 6 6 6 5 5 4
7 7 8 5 2 3 5 0 5 6 6 4 1 2 3 9 12 15 16 16 16 15 14 16 18 17 16 16 16 16 15 14 12 12 11 10 10 9 9 8 8 7 7 7 7 7 6 6 6
4 7 8 4 2 3 4 2 2 6 4 2 3 3 3 11 14 15 15 16 15 15 14 14 16 17 16 16 15 15 15 14 13 12 10 9 9 9 9 9 11 9 8 8 8 8 8 8 8
4 8 8 2 2 3 5 6 0 1 4 6 5 2 4 15 17 16 15 16 15 15 14 14 14 14 14 14 14 14 13 12 12 11 11 10 11 11 12 12 8 8 9 10 10 10 10 9 13
5 10 5 3 3 6 8 7 3 3 5 8 8 4 6 17 19 18 17 18 16 15 14 13 13 12 11 11 11 12 13 14 14 13 13 12 12 9 7 6 7 9 11 11 12 12 11 12 14
5 8 4 5 5 8 9 6 2 5 6 6 5 5 11 16 18 18 17 16 15 13 13 10 7 6 9 9 9 10 11 10 12 13 12 12 11 10 10 10 10 11 12 11 11 12 12 11 10
6 4 6 9 10 10 9 7 4 5 7 8 5 2 12 16 17 16 15 14 13 13 13 13 11 8 9 7 5 8 4 7 10 13 13 12 10 10 9 9 9 9 9 8 8 9 9 10 12
6 5 6 8 10 9 7 5 5 6 9 7 3 4 11 12 12 11 10 10 11 11 12 10 6 8 8 7 8 8 10 12 12 12 12 13 11 10 9 9 9 9 9 8 7 8 8 9 11
1 6 8 6 5 3 6 5 3 8 11 7 3 1 4 6 8 9 8 8 8 9 10 8 9 9 8 8 10 9 11 13 13 14 14 13 13 11 10 9 10 10 11 10 8 7 8 9 9
4 8 8 4 4 1 4 8 3 12 9 4 6 8 8 7 7 7 7 6 6 7 7 7 7 7 8 10 11 12 14 14 13 13 13 14 14 14 11 11 11 10 10 9 9 9 10 10 11
6 7 6 5 2 1 4 3 13 13 7 5 8 9 11 11 10 8 6 7 5 3 4 2 0 3 4 8 11 12 13 13 12 13 13 13 14 16 13 13 12 13 11 10 11 10 11 10 10
7 5 3 4 3 2 3 3 13 11 7 7 8 8 10 9 9 9 8 7 7 7 7 6 5 2 2 4 7 9 10 10 10 11 9 9 10 14 12 13 15 15 13 13 12 11 11 10 11
2 4 5 3 4 4 3 2 5 8 6 6 6 7 7 6 6 8 10 10 10 10 10 9 7 4 1 3 6 6 8 9 9 8 6 4 6 7 7 11 15 16 14 13 11 10 10 9 10
2 4 4 1 3 6 3 4 2 3 3 4 4 3 4 5 6 7 8 9 10 10 9 9 9 10 9 5 6 6 7 8 8 9 9 6 3 5 5 6 9 11 13 11 9 9 11 10 9
2 4 2 3 1 6 9 9 3 1 2 3 3 3 2 5 7 7 6 6 8 10 12 11 10 7 6 3 3 4 3 3 9 11 9 8 5 6 8 8 6 6 8 10 9 9 10 10 9
3 5 6 9 11 13 12 13 10 8 6 4 4 5 3 2 3 5 7 9 10 12 13 12 11 9 6 3 3 3 1 2 9 13 12 10 6 4 7 11 11 6 7 7 7 8 10 10 9
7 2 8 12 14 12 8 13 9 12 9 7 6 7 6 4 2 2 6 9 11 11 10 10 10 10 7 5 5 11 12 14 15 10 6 8 13 12 7 2 6 1 5 6 6 6 8 8 8
6 5 10 14 15 14 13 10 4 8 9 8 7 5 3 0 3 5 8 10 13 14 14 13 13 13 11 9 12 14 16 15 9 6 7 5 7 12 8 6 6 7 6 5 7 5 6 6 7
4 9 14 13 11 11 2 4 5 4 4 6 5 2 2 3 4 6 8 9 12 13 14 15 16 16 15 14 16 18 16 12 9 9 8 6 6 8 8 8 9 8 6 6 6 5 8 7 7
5 11 10 6 7 3 4 6 4 5 3 2 3 5 7 7 8 9 10 10 11 14 14 15 15 16 15 13 14 15 16 15 15 12 10 7 6 6 8 10 8 7 6 5 5 7 9 7 7
5 7 8 8 10 11 10 6 2 3 2 3 5 8 10 12 12 12 11 10 11 13 15 15 16 15 14 13 12 13 16 16 14 12 8 7 5 4 4 6 8 8 7 7 6 6 4 4 5
4 4 6 8 11 10 6 3 3 6 5 6 8 11 12 13 13 13 12 11 12 13 13 12 11 11 12 14 14 12 12 13 12 10 9 6 5 6 5 3 5 6 5 5 5 4 4 4 5
3 3 5 4 6 8 10 10 3 5 5 6 10 13 12 11 11 12 11 12 11 9 6 6 8 9 10 15 15 8 6 5 6 10 10 9 6 5 5 4 4 4 3 2 4 4 3 4 1
4 5 4 5 8 8 11 7 2 5 11 11 14 16 13 12 11 10 11 11 7 3 2 3 6 8 13 16 15 8 4 4 2 3 5 6 5 5 5 5 4 4 5 5 4 4 3 2 1
8 10 8 9 10 11 12 12 9 9 11 14 20 16 12 11 10 10 10 8 5 3 2 2 2 1 6 12 13 8 7 5 4 7 6 7 7 5 5 5 4 4 5 6 5 5 5 4 3
Wind_Direction
194 202 230 233 235 237 73 65 8 123 115 111 146 176 312 324 320 36 136 150 152 151 151 161 165 166 163 155 147 140 141 145 147 147 149 150 149 147 143 140 135 124 113 107 108 110 107 105 108
203 215 227 244 278 310 85 64 248 18 74 150 163 218 277 35 55 124 152 159 157 152 153 160 161 166 164 157 153 148 147 149 151 153 154 156 153 150 146 143 139 133 121 108 103 108 112 114 121
222 236 262 272 311 6 14 28 130 121 138 175 184 259 343 25 97 153 148 155 157 148 150 148 157 164 164 160 158 155 152 155 158 160 160 164 165 159 153 147 144 145 143 133 118 116 121 131 129
240 230 239 271 0 28 3 102 135 141 142 161 262 26 73 26 96 143 146 152 155 149 152 142 159 162 163 162 160 159 157 162 165 167 167 169 170 168 166 164 161 163 164 159 146 136 141 150 151
242 257 262 261 31 25 36 133 183 188 30 47 273 358 58 83 108 135 148 154 158 156 153 147 160 160 163 165 165 167 164 167 171 174 174 173 172 173 173 174 177 176 175 163 146 155 163 171 185
239 252 267 283 22 11 9 189 227 228 260 280 251 294 97 125 140 146 154 159 161 160 157 154 164 166 169 172 176 177 175 174 175 178 179 179 178 180 186 196 205 197 190 186 177 184 190 206 224
267 269 278 302 326 65 41 282 237 261 255 249 239 292 112 159 155 156 160 161 164 164 162 158 171 176 180 184 186 186 183 183 184 187 189 189 189 192 197 205 223 224 219 216 204 207 211 220 231
278 268 265 254 237 103 46 319 277 246 228 193 212 254 120 157 157 160 162 165 169 170 169 166 177 180 189 192 195 195 193 192 194 197 200 204 208 211 214 216 221 227 240 242 238 234 233 237 241
244 252 251 235 237 71 14 336 307 229 209 212 220 274 81 146 159 164 169 172 176 177 176 176 183 184 195 197 191 202 204 204 205 210 211 216 226 217 217 216 204 222 243 250 253 251 248 249 248
234 249 269 5 319 343 346 332 333 231 219 234 230 183 141 155 166 172 177 179 180 181 181 188 186 184 197 205 194 205 212 214 215 220 222 223 235 241 251 240 202 237 247 250 249 250 250 250 253
234 261 308 293 310 321 324 321 287 288 264 251 261 199 164 172 177 179 181 183 182 186 186 188 194 182 211 213 213 215 221 226 225 225 236 239 244 241 236 238 224 231 229 244 239 239 243 252 263
242 241 272 287 302 304 315 325 302 287 313 0 340 208 172 182 183 183 180 183 183 192 198 180 181 197 218 231 255 271 278 262 251 234 227 239 239 243 247 255 253 252 249 250 257 262 267 271 272
236 258 273 274 285 297 302 297 322 328 356 354 343 167 179 184 176 176 178 180 184 194 206 178 193 217 223 224 233 239 241 236 240 246 240 240 246 249 247 252 259 261 262 253 251 267 273 280 271
296 280 275 273 277 288 284 286 312 13 353 348 348 116 135 152 160 162 168 171 180 192 203 203 202 214 231 236 242 250 250 256 252 247 244 238 245 254 261 255 253 255 260 272 285 283 283 277 276
255 262 240 221 254 275 285 251 51 354 347 355 50 65 86 109 138 155 155 155 183 188 192 210 222 230 229 235 241 243 250 253 256 254 249 247 247 251 254 265 263 260 258 265 270 265 262 264 264
239 236 232 136 290 57 280 241 45 1 13 55 76 93 98 77 66 72 98 137 158 124 113 120 47 293 257 244 245 246 247 249 254 258 255 247 251 257 261 264 267 272 268 261 260 264 268 269 269
209 222 214 149 68 337 287 323 30 19 51 81 84 94 105 102 97 97 108 127 124 113 105 101 84 28 313 267 253 256 254 250 249 249 261 280 282 279 279 277 279 279 279 270 265 265 267 275 272
189 236 211 216 51 326 321 25 21 25 48 88 104 115 129 138 143 144 146 150 147 140 138 137 137 125 74 299 265 248 248 240 237 235 239 273 292 298 297 273 274 279 272 278 282 278 276 265 270
237 239 249 143 14 313 297 297 356 14 36 69 70 91 140 151 156 158 168 176 180 189 191 191 194 183 181 192 235 239 239 252 248 221 212 216 237 228 205 228 255 271 266 267 277 274 270 272 283
191 236 264 246 190 301 294 282 176 158 91 53 74 111 162 184 194 200 218 246 261 267 271 280 285 289 268 221 224 219 192 232 250 241 221 207 224 259 230 181 184 237 260 261 263 271 279 280 274
237 297 315 303 304 280 269 266 184 173 145 122 95 100 118 176 245 255 265 276 277 277 282 291 295 305 313 329 339 316 99 193 246 241 230 215 193 240 256 222 144 176 236 253 258 269 277 284 282
296 347 295 292 294 297 298 287 243 173 164 147 132 115 106 99 73 356 323 314 313 312 309 306 305 297 279 256 231 239 241 242 246 244 225 210 188 172 134 49 83 196 256 264 268 265 280 282 283
322 326 289 288 285 286 266 259 249 167 196 172 163 147 132 84 311 317 315 314 315 316 316 315 312 308 301 275 255 253 253 253 245 232 214 203 209 199 175 175 197 195 219 244 257 266 271 281 284
306 284 277 262 266 263 254 285 268 147 191 173 176 188 275 303 301 303 301 300 303 304 304 306 305 303 299 282 264 254 251 249 216 195 197 194 192 186 193 200 205 199 199 223 243 255 257 261 275
292 310 300 258 246 293 63 289 288 99 150 202 271 292 296 297 296 297 301 303 303 303 299 292 288 289 289 279 262 248 236 218 214 215 214 198 193 190 192 199 192 191 190 205 237 242 250 257 266
347 319 318 313 305 311 297 275 50 117 194 246 276 286 288 288 286 289 297 302 303 304 301 295 286 286 295 293 274 261 246 233 229 219 201 191 186 142 158 199 185 183 188 198 218 235 245 250 252
306 326 331 294 277 276 274 277 258 171 216 243 271 287 295 298 296 293 295 295 297 304 312 325 319 316 310 312 306 279 249 231 211 190 175 174 157 131 130 164 170 164 183 199 207 220 221 233 251
315 352 285 278 299 297 300 291 235 181 251 296 320 317 305 298 293 292 293 291 296 306 339 33 57 33 10 354 338 280 203 175 183 183 178 145 145 142 149 138 117 112 131 181 221 204 200 216 262
238 234 244 295 290 291 291 296 66 284 285 290 307 315 303 296 298 296 291 291 280 276 90 121 80 61 40 20 23 33 94 112 106 219 162 134 152 162 155 136 141 155 153 155 171 178 169 165 102
266 271 268 276 278 264 275 283 296 303 288 282 294 301 293 288 289 291 292 280 239 228 239 221 168 69 59 47 28 48 58 59 195 190 178 165 168 174 167 160 163 163 146 137 150 152 125 109 88
Height
1524 1523 1524 1526 1518 1500 1498 1501 1501 1500 1500 1506 1509 1511 1512 1513 1513 1522 1524 1524 1526 1530 1531 1533 1537 1539 1542 1545 1547 1549 1551 1553 1554 1555 1557 1559 1559 1560 1561 1562 1562 1563 1564 1564 1565 1566 1566 1566 1566
1524 1524 1527 1521 1505 1499 1498 1503 1501 1503 1507 1510 1512 1513 1512 1512 1518 1520 1521 1523 1526 1530 1531 1534 1536 1540 1542 1545 1547 1549 1551 1553 1555 1556 1557 1558 1559 1560 1560 1561 1562 1562 1563 1564 1565 1565 1566 1566 1566
1523 1524 1525 1512 1503 1505 1506 1503 1504 1508 1510 1510 1511 1513 1513 1515 1519 1520 1521 1522 1528 1531 1533 1535 1537 1539 1542 1544 1547 1549 1552 1554 1555 1556 1557 1558 1559 1560 1560 1561 1561 1562 1563 1564 1565 1565 1565 1566 1565
1527 1528 1523 1509 1502 1503 1503 1504 1507 1509 1510 1512 1512 1511 1515 1518 1519 1520 1520 1524 1529 1532 1533 1534 1537 1539 1542 1545 1548 1550 1552 1554 1555 1556 1557 1558 1559 1559 1559 1560 1561 1562 1563 1563 1563 1564 1565 1565 1565
1527 1524 1513 1507 1504 1503 1504 1507 1508 1509 1509 1511 1513 1512 1516 1518 1517 1519 1522 1525 1529 1532 1534 1534 1537 1540 1543 1545 1548 1550 1552 1554 1556 1556 1557 1558 1558 1560 1560 1560 1561 1561 1562 1562 1562 1563 1564 1564 1563
1526 1521 1510 1504 1507 1504 1504 1508 1509 1508 1510 1513 1513 1512 1516 1518 1519 1521 1523 1526 1530 1533 1535 1535 1537 1540 1543 1545 1547 1549 1551 1554 1556 1556 1557 1558 1558 1559 1560 1561 1561 1561 1561 1561 1561 1561 1561 1562 1561
1525 1516 1510 1509 1508 1506 1508 1509 1508 1508 1510 1511 1513 1513 1516 1519 1520 1521 1524 1527 1530 1533 1535 1536 1537 1539 1542 1545 1547 1549 1552 1554 1556 1557 1558 1558 1559 1559 1560 1561 1562 1561 1561 1561 1560 1559 1559 1559 1559
1525 1518 1510 1505 1507 1507 1510 1508 1508 1509 1510 1513 1514 1513 1513 1519 1519 1522 1524 1527 1530 1533 1535 1536 1537 1539 1541 1544 1547 1549 1551 1553 1556 1558 1559 1559 1559 1559 1560 1560 1561 1561 1561 1560 1559 1558 1558 1557 1557
1526 1518 1509 1503 1505 1505 1509 1508 1507 1508 1509 1512 1513 1514 1515 1515 1517 1522 1524 1526 1528 1531 1534 1537 1539 1541 1543 1545 1547 1549 1551 1553 1555 1557 1558 1558 1559 1560 1560 1560 1560 1560 1560 1559 1557 1557 1556 1555 1554
1521 1515 1508 1509 1509 1509 1510 1509 1507 1507 1507 1509 1511 1513 1514 1514 1515 1519 1522 1525 1528 1531 1535 1537 1541 1543 1545 1548 1550 1550 1553 1554 1556 1557 1558 1558 1559 1560 1559 1559 1557 1558 1558 1557 1556 1555 1554 1552 1553
1519 1513 1512 1514 1513 1513 1510 1507 1507 1504 1502 1504 1506 1509 1512 1513 1514 1517 1521 1526 1530 1533 1535 1537 1540 1543 1545 1549 1551 1553 1555 1556 1556 1556 1557 1558 1557 1557 1557 1557 1556 1556 1556 1555 1555 1555 1553 1553 1552
1520 1518 1517 1515 1513 1512 1511 1509 1506 1505 1504 1505 1507 1508 1509 1512 1515 1519 1524 1527 1531 1533 1536 1539 1540 1542 1545 1548 1550 1551 1553 1553 1553 1554 1554 1555 1554 1555 1555 1556 1556 1555 1555 1554 1553 1553 1552 1551 1550
1518 1516 1515 1514 1513 1510 1510 1507 1507 1505 1506 1506 1507 1507 1509 1512 1517 1521 1525 1528 1531 1533 1536 1538 1538 1539 1541 1544 1546 1548 1550 1552 1552 1552 1552 1552 1552 1553 1552 1552 1553 1553 1553 1551 1550 1550 1549 1548 1547
1518 1517 1514 1512 1510 1510 1509 1506 1507 1507 1508 1507 1507 1509 1513 1516 1519 1523 1526 1527 1529 1531 1534 1536 1536 1537 1538 1541 1542 1544 1546 1548 1548 1548 1549 1549 1548 1550 1551 1551 1550 1551 1551 1550 1549 1547 1546 1544 1544
1518 1515 1510 1509 1508 1509 1509 1505 1506 1508 1508 1508 1510 1512 1514 1516 1518 1521 1522 1524 1527 1529 1530 1532 1534 1535 1536 1537 1539 1540 1541 1543 1544 1544 1545 1545 1544 1545 1546 1548 1548 1548 1547 1546 1545 1543 1542 1541 1540
1514 1510 1505 1504 1506 1506 1508 1502 1509 1507 1507 1508 1512 1513 1515 1516 1517 1518 1520 1522 1524 1526 1528 1529 1530 1532 1533 1533 1533 1534 1536 1536 1538 1539 1540 1539 1539 1540 1542 1544 1545 1545 1543 1542 1540 1539 1538 1537 1536
1510 1503 1506 1505 1507 1506 1505 1501 1509 1509 1509 1511 1514 1515 1516 1517 1517 1517 1518 1520 1522 1522 1523 1525 1525 1527 1528 1529 1528 1530 1530 1530 1531 1532 1533 1533 1533 1534 1536 1539 1541 1541 1539 1537 1536 1535 1534 1532 1531
1507 1505 1508 1507 1508 1506 1505 1506 1512 1512 1511 1512 1514 1516 1516 1517 1518 1518 1518 1519 1519 1519 1519 1520 1522 1522 1522 1523 1524 1524 1525 1527 1526 1524 1523 1525 1525 1525 1526 1529 1533 1536 1534 1532 1531 1530 1529 1527 1527
1511 1512 1510 1507 1509 1508 1506 1509 1514 1514 1513 1512 1514 1514 1515 1516 1517 1517 1517 1518 1518 1517 1516 1516 1517 1516 1516 1516 1517 1517 1517 1522 1521 1517 1516 1516 1516 1515 1514 1514 1517 1527 1530 1527 1525 1523 1523 1524 1523
1511 1511 1509 1508 1508 1508 1505 1505 1510 1514 1514 1514 1513 1515 1515 1515 1516 1516 1516 1517 1516 1516 1513 1511 1511 1511 1512 1510 1510 1510 1508 1509 1516 1513 1509 1507 1508 1507 1508 1506 1505 1516 1522 1522 1520 1519 1519 1520 1519
1512 1514 1514 1514 1507 1503 1504 1500 1502 1511 1513 1515 1514 1514 1515 1515 1515 1515 1515 1514 1512 1510 1507 1504 1502 1503 1503 1501 1501 1503 1500 1500 1506 1502 1495 1493 1493 1493 1494 1500 1495 1509 1514 1515 1514 1513 1515 1516 1515
1511 1512 1515 1513 1512 1505 1504 1511 1493 1500 1507 1512 1514 1514 1515 1515 1514 1513 1512 1510 1508 1506 1502 1498 1496 1497 1496 1495 1493 1496 1495 1495 1494 1490 1483 1483 1485 1485 1486 1496 1492 1502 1504 1507 1510 1508 1510 1510 1509
1512 1513 1513 1511 1509 1507 1499 1505 1489 1494 1500 1506 1511 1513 1513 1513 1512 1511 1509 1507 1505 1501 1498 1494 1491 1490 1488 1487 1488 1489 1489 1488 1485 1480 1477 1478 1479 1480 1481 1484 1490 1494 1497 1500 1505 1503 1504 1503 1503
1515 1513 1508 1505 1506 1509 1500 1504 1491 1487 1496 1502 1507 1509 1511 1511 1510 1509 1507 1505 1502 1499 1495 1491 1488 1485 1483 1481 1481 1481 1481 1480 1479 1477 1477 1475 1475 1477 1477 1477 1483 1487 1491 1496 1498 1498 1501 1500 1499
1514 1516 1515 1504 1503 1500 1503 1506 1492 1496 1500 1502 1505 1507 1508 1509 1509 1507 1505 1502 1500 1497 1493 1489 1487 1483 1480 1477 1475 1475 1475 1475 1476 1476 1476 1474 1474 1474 1476 1477 1480 1485 1487 1491 1495 1498 1498 1496 1495
1517 1522 1527 1531 1523 1509 1505 1502 1497 1499 1503 1504 1505 1506 1506 1506 1505 1504 1502 1499 1497 1494 1490 1486 1484 1481 1478 1475 1472 1470 1470 1470 1471 1473 1472 1473 1473 1473 1476 1479 1480 1482 1484 1488 1493 1494 1492 1493 1494
1520 1512 1519 1522 1517 1521 1498 1496 1494 1498 1502 1503 1503 1501 1501 1501 1501 1500 1499 1497 1494 1491 1487 1482 1479 1477 1474 1470 1467 1464 1463 1462 1465 1468 1470 1474 1475 1475 1478 1480 1481 1481 1483 1485 1489 1490 1490 1490 1491
1519 1516 1525 1514 1521 1520 1504 1499 1492 1496 1496 1496 1497 1497 1497 1496 1496 1495 1494 1492 1489 1487 1484 1477 1474 1473 1470 1465 1459 1458 1459 1459 1462 1466 1470 1473 1475 1477 1478 1478 1480 1481 1482 1483 1485 1487 1487 1488 1488
1514 1514 1516 1519 1515 1522 1521 1496 1488 1491 1492 1493 1493 1492 1492 1491 1490 1489 1488 1486 1484 1483 1480 1476 1474 1473 1470 1463 1459 1457 1460 1461 1463 1468 1473 1473 1476 1479 1481 1480 1481 1483 1481 1481 1482 1485 1486 1487 1486
1510 1511 1512 1521 1516 1513 1517 1509 1487 1488 1488 1489 1488 1488 1489 1488 1486 1485 1483 1481 1480 1480 1478 1476 1474 1473 1468 1464 1461 1462 1466 1467 1471 1473 1476 1475 1476 1478 1480 1481 1482 1484 1483 1482 1483 1486 1486 1485 1485